Theta_e
313 313 314 313 314 313 311 311 312 312 311 312 312 312 312 311 311 312 313 312 312 312 312 312 314 317 315 308 310 318 324 323 312 310 307 309 304 304 302 303 304 302 304 306 306 307 308
315 314 314 314 314 312 311 312 313 312 311 311 312 312 312 312 312 312 313 313 312 313 313 313 314 317 310 292 318 316 316 318 317 313 308 309 306 307 305 304 302 303 304 305 307 307 307
315 314 314 314 313 314 312 313 313 312 311 311 312 312 312 312 312 312 313 312 312 312 313 313 314 314 307 294 314 315 315 315 317 316 309 308 307 306 306 304 307 305 302 303 304 306 306
314 313 312 313 313 312 312 312 312 312 311 311 312 312 312 312 312 312 312 312 312 312 312 313 314 313 294 308 315 311 313 312 316 317 313 311 308 305 305 307 304 301 300 296 303 304 306
313 313 313 313 312 311 311 311 312 312 312 313 313 312 312 311 311 311 311 311 311 311 312 314 312 306 291 309 307 312 315 310 314 312 312 312 307 303 305 301 297 298 292 295 297 303 304
311 312 311 312 312 312 311 311 312 312 312 312 312 312 312 311 311 310 309 310 310 312 313 315 311 295 298 300 307 309 316 316 310 309 306 304 301 297 299 296 287 290 293 295 295 299 301
312 312 311 311 312 311 310 312 312 312 312 312 312 311 311 310 310 309 307 306 301 299 303 298 295 292 299 306 309 307 311 313 310 308 300 300 297 293 295 298 296 296 295 294 296 299 298
310 311 311 310 310 310 310 311 312 311 311 311 311 310 310 309 309 309 305 301 300 301 293 301 300 301 304 305 297 300 307 306 303 299 301 297 295 299 299 298 297 296 294 294 297 298 298
310 310 311 311 311 310 310 311 311 311 310 310 309 309 309 308 308 305 303 301 306 304 294 294 298 297 298 301 295 295 301 304 301 298 299 297 297 299 299 296 294 295 293 294 293 296 298
310 310 310 311 312 311 311 312 311 311 309 309 308 308 307 307 302 302 301 304 305 305 286 287 293 297 299 298 292 300 304 303 299 297 297 298 300 298 296 293 295 291 296 295 294 293 290
310 310 310 311 311 310 310 311 311 310 309 308 308 308 307 306 300 299 302 303 305 300 275 289 292 302 300 294 295 301 306 303 296 297 298 295 295 295 294 296 298 295 298 296 295 293 292
309 310 310 310 310 310 310 310 310 309 308 307 307 307 305 301 300 301 302 302 298 282 272 287 296 295 294 296 296 302 301 305 304 298 298 296 300 299 298 298 298 299 296 296 296 294 286
308 309 309 310 310 309 310 309 308 308 307 307 306 307 304 301 296 301 301 295 280 275 284 286 287 291 291 290 292 297 295 291 291 289 289 292 293 298 300 295 298 297 293 287 285 285 284
308 308 309 309 309 309 308 308 307 307 307 307 306 302 301 302 301 300 297 285 271 276 282 290 289 288 286 288 289 293 293 288 290 292 290 287 285 294 297 296 293 293 293 287 280 281 285
307 307 308 309 309 308 307 307 306 306 306 306 302 297 296 298 300 301 291 274 273 279 288 286 288 284 284 287 287 288 287 286 289 290 288 288 288 295 294 296 296 292 290 295 288 288 285
307 308 308 308 308 307 307 306 306 306 306 303 295 293 293 298 300 297 286 279 285 287 290 289 283 285 282 284 284 285 285 289 288 291 291 288 284 291 293 296 296 295 296 288 290 280 280
307 307 307 307 307 306 306 306 305 306 306 301 293 289 296 300 299 291 281 279 287 290 291 287 285 284 284 283 285 284 285 288 290 290 292 289 289 287 289 291 287 288 287 291 291 289 283
306 306 307 307 307 306 306 305 305 305 305 297 290 284 299 297 285 283 281 285 291 288 290 289 289 287 285 285 284 285 284 287 291 291 286 289 287 282 284 291 292 291 288 289 284 282 286
306 305 306 306 306 306 305 305 305 305 302 294 290 291 300 294 279 280 285 285 287 286 287 288 287 288 288 285 282 285 286 290 291 290 287 289 284 279 281 287 290 289 291 291 290 287 283
305 305 306 306 307 306 305 305 304 305 301 295 287 284 290 291 286 284 282 283 284 290 287 288 287 288 286 284 286 283 285 289 291 290 293 293 286 281 278 281 286 284 286 288 287 282 283
305 305 306 306 306 306 305 304 304 305 302 294 287 282 288 282 284 285 284 285 283 284 289 289 286 285 285 282 283 283 286 287 289 291 291 290 282 285 285 286 286 285 285 286 284 285 282
304 305 305 305 305 305 305 304 305 305 301 291 284 284 288 285 287 286 285 283 284 285 287 285 285 287 287 284 284 282 285 285 285 289 288 289 282 284 281 285 285 282 285 286 286 286 286
303 305 305 305 305 305 305 304 304 304 299 293 289 291 287 283 285 284 283 285 285 287 287 288 287 285 284 285 288 289 290 290 289 287 285 285 283 281 277 283 283 278 283 284 285 287 287
303 304 305 305 305 305 304 304 304 302 296 291 290 289 283 281 283 283 284 285 285 284 284 286 287 285 288 291 290 290 288 288 288 288 289 285 283 282 278 280 272 282 288 288 286 287 289
302 303 304 304 304 304 304 304 304 300 298 292 290 289 283 278 283 283 284 284 284 285 283 284 286 289 291 288 282 278 279 281 283 288 287 288 285 280 277 277 280 283 286 286 285 285 290
302 303 304 304 304 303 304 303 304 302 299 293 291 290 286 281 280 285 283 284 281 281 282 284 288 291 291 285 281 273 273 276 278 282 288 287 287 282 280 275 272 282 288 291 290 281 291
301 302 303 303 303 303 303 303 303 303 300 294 292 292 288 280 284 286 283 282 285 282 281 282 285 287 289 283 278 276 276 281 276 277 278 281 281 278 278 277 281 287 290 291 279 283 293
300 302 302 302 303 302 302 303 303 303 300 295 291 292 289 282 285 289 289 286 285 284 281 284 284 283 284 281 279 278 277 281 280 281 281 279 278 277 279 276 274 290 289 284 290 293 294
299 301 301 302 302 302 302 302 303 302 301 297 290 294 294 288 286 291 291 293 291 290 286 286 284 284 287 283 281 281 280 281 281 277 285 279 284 281 283 282 290 292 291 294 294 292 293
Wind_Speed
9 7 6 5 7 6 4 2 2 2 4 4 5 4 6 6 7 7 7 8 10 10 12 11 14 13 6 1 8 4 12 11 3 3 3 3 1 3 3 1 2 3 2 1 3 6 6
10 8 6 6 6 6 4 3 3 2 3 3 3 4 4 5 7 7 8 9 10 8 12 9 11 12 0 4 2 8 9 6 6 4 3 2 2 1 4 2 3 1 2 6 6 4 5
10 9 8 7 6 6 5 3 3 3 3 0 3 4 5 6 7 8 10 9 12 9 12 10 6 3 1 13 4 8 4 2 3 1 1 1 0 1 1 1 2 1 3 3 5 4 6
11 10 9 7 8 7 7 5 5 4 2 0 2 3 5 7 7 9 10 11 12 10 12 8 1 2 7 3 5 10 3 4 5 5 3 4 1 3 1 1 4 3 2 2 2 1 3
9 9 7 7 6 5 3 6 5 4 2 2 3 4 4 6 8 11 12 14 15 5 5 2 3 1 8 5 3 4 3 3 3 4 3 2 1 1 1 3 1 3 5 4 4 2 3
9 10 10 9 7 6 5 5 5 4 2 1 2 3 5 6 8 11 14 14 5 4 1 2 1 2 2 4 4 7 1 4 2 5 4 4 3 2 3 4 7 5 5 3 4 2 4
9 11 11 9 8 8 7 8 7 4 2 1 2 4 6 8 9 11 7 1 3 1 2 4 1 3 2 10 4 2 2 2 2 2 6 3 5 9 10 9 7 5 6 7 1 2 8
7 9 12 11 9 9 10 10 7 5 4 2 1 2 5 7 11 10 2 5 3 2 6 4 7 7 5 2 5 2 3 3 3 4 6 4 12 6 5 9 10 10 10 13 7 4 4
7 8 9 9 10 9 10 10 9 8 6 4 2 4 6 9 9 3 1 4 4 6 2 5 2 2 2 5 4 4 3 3 3 5 11 11 4 2 11 8 9 11 15 10 11 5 6
8 9 9 10 9 9 10 11 11 9 7 5 4 4 8 11 4 2 2 7 4 4 2 2 0 1 2 1 2 3 2 2 2 7 6 6 4 6 3 2 7 9 7 11 7 4 7
8 9 11 11 9 8 10 12 12 10 8 6 5 4 6 8 1 1 4 8 3 1 4 5 1 2 3 3 1 3 1 1 5 6 6 3 3 3 4 6 11 6 2 6 5 4 5
6 8 9 10 10 13 13 12 11 9 8 6 4 3 3 3 2 1 7 5 3 6 3 2 2 2 2 2 1 2 1 1 1 2 3 2 2 1 3 2 5 2 4 2 1 4 9
6 7 7 13 15 14 13 11 11 9 7 6 4 3 3 1 2 6 5 3 5 4 3 4 3 4 2 3 3 2 4 7 2 4 4 1 1 1 1 3 1 3 3 2 4 5 7
6 8 8 14 14 13 12 10 9 9 8 7 5 3 3 1 3 5 3 5 5 2 2 3 2 3 4 7 4 3 5 4 11 4 3 5 4 1 1 7 5 6 8 4 6 6 2
7 8 11 13 14 12 12 10 8 9 9 9 6 2 2 3 4 2 5 4 5 4 2 4 3 5 4 4 2 4 6 4 6 9 2 3 3 3 4 2 1 4 5 2 3 1 5
9 8 12 14 14 13 12 11 9 9 9 8 3 2 2 6 3 3 5 3 1 3 2 1 3 1 2 6 3 4 4 6 5 9 2 3 1 3 3 0 7 2 2 3 1 5 6
10 10 13 16 15 14 13 12 10 8 9 6 3 3 3 4 2 5 3 3 2 2 1 2 2 3 4 3 4 4 4 4 7 8 9 5 2 1 2 4 4 4 1 2 2 3 3
9 11 13 17 16 15 14 13 11 9 10 6 3 3 4 3 5 2 3 3 0 3 4 4 3 5 3 5 4 3 4 4 5 4 4 5 2 1 2 7 3 3 3 2 4 4 2
10 11 16 17 16 15 14 13 11 10 7 4 3 2 2 4 5 2 2 1 2 1 3 3 2 3 3 3 4 2 2 3 8 4 3 3 1 1 2 1 2 2 2 2 5 1 6
12 12 17 18 17 16 15 13 10 9 8 4 3 3 2 2 2 6 4 2 3 3 2 2 3 3 3 3 2 2 1 2 5 3 6 4 4 6 6 2 3 5 3 4 3 4 6
12 13 18 18 18 17 15 14 11 10 7 4 3 1 1 4 3 3 2 4 4 3 1 1 3 1 2 2 1 1 1 4 7 5 2 1 4 5 6 8 11 13 15 15 14 12 13
9 14 19 19 16 17 16 13 11 11 8 4 4 3 1 2 10 5 4 3 4 3 2 1 4 6 3 2 2 1 5 3 2 4 3 5 3 3 11 13 17 21 17 19 21 22 26
4 12 19 18 17 17 15 14 12 12 5 3 1 0 2 2 5 4 5 6 4 4 5 2 4 2 2 2 3 2 4 5 6 4 5 3 2 4 5 3 11 16 22 24 18 21 22
5 9 15 17 17 17 16 14 14 13 7 3 2 3 4 2 1 3 4 3 5 3 3 1 4 2 2 3 5 3 7 11 12 15 13 7 7 2 5 7 9 2 3 3 13 20 20
6 8 18 19 16 16 16 15 15 14 9 4 2 3 3 3 2 1 2 4 3 0 2 2 4 4 2 1 1 4 3 2 6 11 14 15 9 4 4 7 17 19 9 7 10 18 18
8 9 14 16 16 17 16 16 16 15 10 4 1 2 3 5 4 1 3 3 2 2 2 2 3 2 4 2 2 3 3 3 3 1 2 11 12 7 5 6 8 4 2 8 7 14 10
6 9 10 16 19 16 17 15 15 16 13 5 1 1 4 3 2 4 3 4 5 2 1 2 2 2 2 3 3 4 3 2 3 3 5 5 4 12 11 9 14 7 6 2 10 13 8
6 8 8 11 19 19 15 17 15 16 15 5 1 0 4 2 3 5 4 4 3 3 3 2 1 1 2 4 4 3 4 4 3 4 3 7 7 5 6 7 15 7 4 8 7 6 14
14 7 8 12 18 21 18 16 15 16 17 7 3 0 1 2 3 2 3 5 6 6 5 3 1 3 2 2 1 0 3 2 5 4 4 5 7 5 11 6 9 7 11 14 15 17 22
Wind_Direction
186 192 191 179 166 162 161 166 124 76 47 46 28 41 6 358 352 348 340 342 335 339 325 341 336 334 348 49 250 49 356 340 34 39 47 333 114 137 161 214 204 207 261 277 281 299 292
184 183 181 192 196 193 206 212 164 103 68 5 16 14 12 348 337 336 339 330 318 317 310 335 333 328 326 237 102 2 356 341 17 31 23 339 82 289 127 215 219 211 278 296 297 271 269
189 202 183 198 196 207 219 217 177 164 173 35 350 357 356 332 332 322 320 312 294 317 308 317 340 297 132 243 349 324 340 276 289 344 45 295 278 72 122 207 327 308 306 327 231 260 246
199 202 204 215 196 198 225 204 184 187 202 123 330 339 341 322 320 320 306 298 289 304 295 285 338 261 255 250 301 299 286 261 227 222 200 263 353 103 212 294 36 6 27 351 329 221 318
218 185 183 182 193 185 186 165 171 197 215 273 308 320 317 314 320 314 306 299 298 308 233 224 95 166 263 319 307 327 198 277 144 163 181 261 70 122 135 110 33 7 262 227 289 58 271
202 174 181 172 185 191 185 187 191 202 231 273 307 310 319 317 316 317 306 301 278 109 129 208 86 303 302 335 313 321 15 265 183 148 125 121 60 167 100 160 239 191 221 221 253 5 4
192 199 184 183 189 202 202 186 196 207 210 176 291 333 341 336 319 312 320 299 32 347 18 231 184 276 313 332 289 320 338 201 149 147 166 159 206 213 188 207 233 264 263 275 232 256 314
199 202 197 188 191 205 206 198 189 194 169 155 104 1 346 328 321 325 355 68 79 280 314 271 257 282 291 284 288 269 272 161 152 175 146 190 238 213 174 206 227 242 263 262 275 232 212
221 221 213 193 194 201 210 205 187 170 161 143 83 14 346 323 319 30 33 77 328 157 250 295 217 228 260 170 208 258 301 161 141 157 194 203 165 110 203 194 209 231 231 236 252 312 274
224 206 202 186 200 207 211 202 174 152 145 124 80 24 347 329 68 330 60 342 329 186 43 346 244 112 125 208 254 228 260 236 148 186 170 238 225 235 240 142 191 250 225 235 234 243 258
208 194 199 191 197 214 180 157 146 140 131 112 87 40 15 31 197 78 335 319 286 163 81 336 114 141 146 224 312 39 280 7 182 175 175 169 141 105 209 235 201 254 76 170 164 204 285
192 182 190 185 184 161 144 141 132 133 125 114 97 41 21 28 0 316 318 309 44 44 233 22 125 175 196 238 163 85 19 27 131 104 36 102 107 109 185 159 147 86 92 90 164 223 248
173 172 192 170 155 145 138 137 134 131 124 124 111 51 51 73 289 333 322 40 49 126 305 358 345 347 65 9 63 94 75 52 132 164 219 17 165 178 186 228 119 152 109 168 207 203 268
166 173 162 146 140 135 134 130 134 134 132 134 122 67 339 260 343 350 34 57 95 219 299 313 348 340 75 357 49 39 117 72 30 31 98 175 138 3 119 223 208 186 203 203 238 220 277
181 182 161 150 144 142 136 139 143 137 139 138 115 10 357 343 348 34 72 71 192 202 313 352 348 59 27 8 40 89 52 41 40 9 65 129 110 313 35 1 191 149 176 181 241 221 268
182 179 174 155 148 144 142 140 138 141 145 134 94 62 340 319 357 60 74 131 98 245 332 55 100 10 71 5 63 66 75 355 355 16 315 21 179 15 328 188 44 65 120 139 123 233 238
187 179 173 155 153 147 143 139 142 141 146 127 60 73 316 333 53 55 126 201 160 306 110 68 112 96 71 29 45 52 62 39 352 4 45 11 27 331 297 42 52 359 52 73 223 196 255
193 185 175 159 157 152 147 148 148 146 136 67 98 83 345 18 65 21 157 177 222 343 8 45 69 68 73 40 59 82 79 66 345 345 45 12 56 317 283 298 323 237 257 207 220 220 244
187 193 176 162 159 154 152 152 151 155 140 129 95 86 1 68 129 125 221 126 104 87 29 56 77 57 42 68 90 58 44 120 36 53 57 16 79 118 247 170 68 97 136 108 95 55 224
188 187 180 163 160 156 154 151 157 153 128 90 91 113 33 67 155 145 135 138 118 12 33 29 121 82 78 78 30 127 89 61 20 40 323 182 184 213 240 333 12 273 266 288 259 235 277
190 180 178 167 161 157 153 158 165 149 114 93 49 187 227 154 184 155 113 136 138 140 19 164 59 101 122 126 123 236 60 36 348 39 71 126 244 221 242 283 284 270 265 272 255 251 249
182 183 170 160 160 152 156 163 165 148 111 80 130 130 30 107 151 147 130 194 143 135 131 93 133 114 159 167 65 52 359 358 276 10 51 11 284 293 279 267 254 258 257 247 243 248 257
152 181 164 158 155 156 161 162 158 150 100 110 144 101 103 319 157 167 182 160 171 134 40 86 116 141 230 114 66 311 240 240 239 254 282 270 262 288 277 283 306 278 239 232 240 237 241
150 169 157 161 161 161 165 164 160 150 105 116 168 109 86 181 183 169 129 122 136 93 143 186 110 131 130 13 325 243 237 234 230 236 216 213 205 230 283 295 253 320 70 192 225 238 239
171 173 173 170 175 166 168 166 161 143 124 98 134 112 124 131 232 306 182 121 128 207 164 233 256 220 112 88 314 346 333 9 250 227 221 211 202 234 255 235 284 282 267 179 215 257 243
181 171 169 162 180 170 171 167 163 155 123 88 89 106 103 122 224 121 170 199 177 177 326 243 287 163 128 129 133 177 236 215 309 99 0 194 214 212 189 251 263 107 197 258 253 276 276
170 175 167 174 176 180 172 170 167 159 143 109 125 135 92 119 247 156 182 170 142 122 170 296 352 119 163 147 183 204 242 248 225 215 185 159 197 223 237 251 268 276 273 345 262 281 291
77 185 175 183 178 172 182 173 173 163 149 112 113 243 111 155 258 193 193 141 122 149 154 219 358 135 152 192 181 200 203 214 222 233 213 195 182 206 218 239 264 232 277 217 253 269 300
42 58 178 185 179 172 179 170 168 166 160 114 101 3 112 120 244 226 238 232 200 180 155 217 198 143 198 161 228 175 205 223 220 243 231 235 212 213 215 222 262 253 268 280 291 288 296